Location: Geography Hall
(41.1195°N, 80.5706°W)
Time: 20:14:45
(UTC+00:00)

Cosmos 2369 - Pass Details

Date: 29 October 2020
Orbit: 841 x 854 km, 71.0° (Epoch: 03 December)

Event Time Altitude Azimuth Distance (km) Brightness Sun altitude
Rises 23:30:28 0° 192° (SSW) 3,406 7.1 -13.6°
Reaches altitude 10° 23:32:56 10° 188° (S) 2,474 6.3 -14.1°
Maximum altitude 23:38:32 62° 109° (ESE) 956 3.7 -15.1°
Drops below altitude 10° 23:44:08 10° 30° (NNE) 2,482 5.8 -16.2°
Enters shadow 23:45:17 - 29° (NNE) 2,915 6.2 -16.4°
